Location: Góry Miechowskie
(50.3599°N, 20.1803°E)
Time: 13:01:57
(UTC+00:00)

Vanguard 1 Rocket - Pass Details

Date: 13 September 2024
Orbit: 650 x 4218 km, 34.3° (Epoch: 12 October)

Event Time Altitude Azimuth Distance (km) Brightness Sun altitude
Rises 10:44:20 0° 280° (W) 8,419 12.3 43.1°
Reaches altitude 10° 10:55:09 10° 261° (W) 7,381 12.3 43.0°
Maximum altitude 11:04:52 14° 238° (WSW) 6,720 12.5 42.7°
Drops below altitude 10° 11:13:40 10° 214° (SW) 6,514 12.7 42.4°
Sets 11:22:02 0° 192° (SSW) 6,796 12.7 42.1°
